Location: Ajisawe
(8.4333°N, 4.3833°E)
Time: 23:25:04
(UTC+00:00)

SR - Pass Details

Date: 23 April 2021
Orbit: 573 x 882 km, 66.7° (Epoch: 07 May)

Event Time Altitude Azimuth Distance (km) Brightness Sun altitude
Rises 03:54:54 0° 162° (SSE) 3,076 ? -23.5°
Reaches altitude 10° 03:58:17 10° 137° (SE) 2,229 ? -22.7°
Maximum altitude 04:00:56 14° 106° (ESE) 2,003 ? -22.1°
Drops below altitude 10° 04:03:41 10° 75° (ENE) 2,335 ? -21.4°
Sets 04:07:21 0° 51° (NE) 3,330 ? -20.5°
